Weather in Brianka

Ukraine / Luhansk Region     48°30′20″N   38°39′55″E
temp.,
°C
wind,
m/s
gust,
m/s
humid.,
%
clouds,
%
prec.,
mm/h
press.,
hPa
HPBL,
m
21 april, wed
wed2100:00+9ssw9158898 0.0 1005742
03:00+9ssw71290100 0.0 1006862
06:00+9w81385100 0.3 1009863
09:00+11wsw7107752 0.3 1013994
12:00+15wsw8104787 0.1 10142042
15:00+16wsw71039100 0.1 10142405
18:00+14sw694755 0.0 10151285
21:00+10sw3867100 0.1 1018202
22 april, thu
thu2200:00+10ssw4879100 0.1 1019240
03:00+9s238171 0.1 102095
06:00+7ssw35906 0.0 1021135
09:00+13sw44645 0.0 1022700
12:00+16sw344890 0.7 10211857
15:00+15ssw235194 1.3 1021976
18:00+13ssw2461100 0.0 102188
21:00+11sw226914 0.0 102221
23 april, fri
fri2300:00+10sw227270 0.0 102219
03:00+9sw228059 0.0 102227
06:00+9ssw338278 0.0 102279
09:00+14sw44596 0.0 1022707
12:00+17sw554278 0.0 10202336
15:00+15ssw565088 0.0 1019922
18:00+14ssw695951 0.0 1018599
21:00+11ssw6127150 0.0 1018333
24 april, sat
sat2400:00+10ssw51270100 0.0 1017441
03:00+9ssw51171100 0.0 1015383
06:00+8sw4108397 0.0 1015377
09:00+7wnw6887100 0.9 1016916
12:00+11wnw584942 1.1 10161818
15:00+13w8113999 1.1 10162737
18:00+11w81047100 0.1 10161707
21:00+7w5106551 0.1 1018834
25 april, sun
sun2500:00+4w611640 0.0 1019536
03:00+3wsw510810 0.0 1020293
06:00+2w510885 0.0 1021334
09:00+7wnw45535 0.0 10211040
12:00+10wnw454050 0.0 10212050
15:00+12wnw4435100 0.0 10192269
18:00+11wnw3339100 0.0 10191594
21:00+8w1145100 0.0 101910